カタログに戻る

ARIANE 44LP DEB

運用中GTO
NORAD 33544·DEBRIS·🇫🇷 France

打ち上げ Dec 11, 1988 から Guiana Space Centre

Loading…

TLE

経年Source: Space-Track

元期: Sep 14, 2026, 06:37 UTC

1 33544U 88109T   26257.27613635  .00000723  00000-0  14415-2 0  9999
2 33544   7.1227   7.8166 7152160 148.2425 288.7476  2.38213441205597

AllMySatでARIANE 44LP DEBをリアルタイム追跡

Download on the App Store